Wind_Speed
9 11 12 13 15 16 16 16 16 16 18 19 19 21 23 24 24 25 26 26 26 26 26 26 27 27 27 28 28 27 27 27 27 26 27 27 27 28 27 27 27 27 26
10 11 12 13 15 17 18 17 17 18 18 19 21 22 24 25 26 26 27 27 27 27 28 27 28 28 28 28 28 28 28 27 27 27 26 27 27 28 29 28 27 27 26
11 13 13 13 15 17 18 18 18 19 19 20 21 22 23 24 25 26 27 28 28 28 28 28 28 28 29 29 29 29 28 28 27 28 27 27 27 28 28 28 27 28 28
12 12 12 13 15 16 17 18 19 19 20 20 22 22 23 24 26 26 27 28 28 29 29 29 29 29 29 29 30 30 29 29 29 29 28 28 27 27 27 28 28 28 28
12 13 13 14 15 16 17 18 18 19 20 21 22 23 24 25 26 26 27 27 28 28 28 29 29 29 28 29 29 30 30 30 30 29 29 28 28 27 28 28 28 28 28
12 13 14 15 16 16 17 18 18 19 19 20 21 22 23 24 24 25 25 26 26 27 27 28 28 29 29 29 29 30 30 30 29 29 30 29 29 29 29 29 30 29 29
12 13 14 16 16 17 17 18 18 19 19 20 20 21 21 22 23 24 24 25 25 25 26 27 27 28 28 28 28 29 29 29 29 29 30 30 30 30 29 30 30 30 30
13 14 15 16 16 17 17 18 19 19 20 20 21 21 21 22 22 22 23 23 24 24 25 25 26 26 27 27 28 27 27 28 28 28 29 30 30 30 30 30 30 30 30
13 14 15 16 17 18 18 19 20 21 21 21 21 21 21 21 21 21 22 22 22 23 23 24 24 25 25 25 26 25 25 26 26 26 27 28 29 30 31 30 30 30 30
15 15 16 17 19 20 20 21 21 21 21 21 21 21 21 21 21 21 21 21 22 22 22 22 23 22 22 23 23 23 23 24 25 26 27 27 28 28 29 29 29 29 29
16 17 18 20 21 21 22 22 22 22 22 22 22 22 22 22 22 22 22 22 22 22 22 22 22 22 21 21 21 22 23 23 24 24 25 26 27 27 27 28 28 28 28
17 18 20 21 22 23 23 23 23 23 23 23 23 23 23 23 23 22 22 22 22 22 22 21 22 22 22 21 21 21 22 22 23 23 24 24 26 26 26 27 27 26 26
18 20 22 23 23 24 24 24 24 24 24 24 24 24 24 24 23 23 22 22 22 22 22 22 22 22 22 22 21 22 22 22 22 22 22 23 24 24 25 25 25 24 24
21 23 23 23 24 24 25 25 25 25 25 25 25 25 24 24 24 23 23 23 23 23 23 22 22 23 22 22 22 22 22 22 22 22 23 23 23 23 23 22 22 23 23
23 23 24 24 25 25 25 25 25 25 25 25 25 25 25 25 25 24 24 24 23 24 24 23 23 22 22 22 22 21 21 20 20 20 20 21 21 20 20 20 20 21 21
24 25 25 25 26 25 25 26 26 25 25 25 25 25 24 24 24 24 24 23 23 23 23 23 23 22 22 21 21 20 20 19 18 18 17 17 17 18 19 19 19 19 19
25 25 25 25 26 25 25 25 25 25 24 23 23 23 23 23 23 23 22 22 21 21 21 21 21 21 20 20 19 19 18 18 17 16 16 16 15 16 16 17 17 18 18
24 24 23 23 23 23 23 23 23 23 22 22 21 22 22 22 21 21 21 20 19 19 19 19 18 18 18 17 17 16 16 15 14 14 14 14 13 14 15 15 16 16 16
23 23 22 22 22 22 22 22 22 21 21 20 20 20 20 19 19 19 18 17 16 16 16 16 15 15 16 16 15 14 14 13 12 12 12 12 12 13 14 14 14 14 14
21 21 21 21 21 21 21 21 20 20 20 19 19 18 17 17 16 15 14 14 14 13 13 13 13 13 13 13 13 12 11 11 10 9 9 9 8 9 11 11 11 11 11
20 20 19 19 19 19 19 19 18 17 17 16 16 16 15 14 14 12 11 11 11 10 10 10 9 8 8 9 9 9 8 8 8 8 7 6 6 7 8 8 9 9 9
19 18 18 17 17 17 16 16 15 14 14 14 13 13 11 10 10 9 8 8 8 8 7 6 5 5 6 6 7 7 7 7 7 7 6 6 6 6 6 7 7 7 7
17 17 16 15 14 13 13 13 12 11 10 10 9 8 7 7 6 5 5 5 4 4 4 4 4 5 6 7 7 7 7 7 6 5 5 5 5 5 5 5 4 4 4
15 15 14 13 11 11 11 9 8 7 6 5 4 4 4 3 3 2 2 2 2 2 2 2 4 5 6 7 7 6 6 5 5 5 4 4 4 4 4 3 3 2 2
13 12 11 10 9 8 7 6 6 5 4 4 3 2 2 1 0 0 1 2 2 2 3 3 5 6 7 6 5 6 6 5 5 5 5 5 5 5 5 5 4 4 3
11 10 9 8 8 7 6 6 5 5 4 4 3 2 2 3 3 4 4 4 4 5 6 6 6 7 6 6 6 6 6 7 7 6 6 7 7 6 6 6 6 5 5
Wind_Direction
290 290 290 293 295 295 295 296 287 283 278 275 273 270 267 264 263 263 263 262 262 263 264 264 264 264 265 265 264 263 265 265 265 264 263 262 260 257 258 257 257 257 256
292 293 292 293 295 295 295 295 288 284 281 279 277 273 270 267 265 264 263 263 264 264 265 266 265 265 266 266 264 262 264 266 265 263 262 261 261 261 259 256 257 257 256
289 292 292 293 294 294 294 292 289 287 285 281 278 276 273 270 268 266 265 264 264 265 265 266 265 265 265 265 263 261 262 264 264 264 263 260 260 260 258 257 257 257 256
285 288 290 294 297 297 296 293 290 288 285 282 279 277 275 274 270 268 267 266 265 265 266 266 265 266 265 264 262 261 261 261 262 263 261 259 259 258 257 258 259 257 255
285 287 291 294 296 298 297 296 293 290 287 284 280 278 277 276 274 271 269 267 267 267 266 266 266 267 266 266 264 262 261 262 261 262 261 259 257 257 258 258 259 259 260
282 285 289 291 293 295 296 296 296 294 290 287 283 282 281 278 277 274 271 269 268 267 267 266 266 267 267 267 266 263 261 260 259 259 259 259 258 257 257 259 258 260 261
276 283 285 288 291 294 296 295 296 295 292 290 288 285 284 282 280 278 274 270 268 268 268 267 266 267 267 267 265 263 261 259 257 256 257 258 258 258 258 259 259 259 260
277 284 284 287 291 294 296 296 296 295 294 291 289 287 287 286 283 280 276 271 269 269 269 269 268 268 267 266 264 263 260 258 256 255 255 257 257 258 259 261 260 259 260
276 282 287 291 293 296 297 298 296 294 293 291 289 287 287 286 284 282 280 277 274 272 271 271 270 268 266 265 265 261 259 258 257 255 254 255 256 257 258 260 259 259 259
276 283 286 292 295 295 297 298 296 294 292 291 290 288 286 285 283 282 281 278 275 274 274 272 272 270 268 266 265 261 260 260 258 256 254 255 255 256 256 257 257 258 260
282 287 287 292 295 295 295 295 294 292 291 291 291 289 287 285 284 283 281 279 276 274 274 274 272 270 268 266 265 264 262 261 260 258 258 257 254 254 254 254 255 257 258
286 288 290 291 293 294 293 292 292 292 290 290 289 288 286 284 283 282 280 279 277 274 274 274 273 270 268 267 266 265 264 261 259 257 255 255 254 253 253 254 255 256 255
288 289 290 290 291 291 291 291 291 291 289 288 287 287 286 284 283 281 279 277 276 275 274 273 272 271 268 266 265 264 263 260 258 257 257 256 256 255 254 254 254 252 252
291 292 291 292 291 291 291 291 290 289 287 286 286 285 285 283 282 282 279 276 274 273 272 273 273 271 269 267 265 263 262 260 259 259 257 256 255 253 253 253 251 249 249
298 295 295 294 293 291 291 291 290 289 287 285 285 284 283 283 282 282 280 277 275 272 271 272 271 269 268 267 265 262 260 258 258 258 256 255 254 251 250 249 247 246 246
300 298 297 295 295 292 291 291 290 289 288 286 284 283 283 283 283 281 279 277 274 272 272 271 271 270 267 264 263 260 259 258 259 258 255 253 251 247 245 246 244 243 243
299 299 298 296 296 295 293 291 290 289 288 286 284 284 284 284 284 282 280 277 274 272 271 270 269 268 265 262 260 258 258 257 255 254 251 249 249 244 243 242 241 240 243
301 301 301 300 298 296 295 293 291 290 289 288 286 285 284 284 284 282 280 277 274 272 271 269 267 264 260 257 256 253 252 251 252 252 251 249 245 240 236 235 238 240 241
302 302 303 303 301 299 296 295 293 291 289 288 288 287 285 286 284 281 277 274 273 272 270 267 264 260 257 254 249 244 245 247 247 248 247 244 241 237 233 235 238 239 243
306 308 306 304 303 301 297 295 293 291 289 288 288 287 286 284 283 280 275 274 272 272 269 266 262 258 255 250 242 240 240 236 235 235 232 233 230 225 223 229 234 238 243
309 309 307 305 303 302 301 299 296 293 290 287 287 286 285 283 280 277 273 273 272 271 265 262 258 254 248 240 235 229 221 220 218 218 218 218 216 214 218 224 230 235 243
310 310 309 308 308 307 306 303 298 295 293 291 288 285 284 282 277 271 269 272 272 263 260 252 244 235 221 203 201 201 197 194 197 203 204 209 214 215 221 225 229 233 238
312 310 310 311 311 311 310 309 305 302 300 299 294 291 289 281 274 271 270 270 271 259 255 241 217 206 192 183 183 183 183 187 189 193 197 203 207 206 210 215 215 213 222
318 316 315 314 315 316 317 318 318 316 315 318 314 311 310 290 271 264 264 253 243 233 224 201 187 183 175 171 173 179 186 189 193 191 190 186 181 181 181 179 183 191 176
327 328 330 331 330 330 334 339 341 343 341 339 341 337 339 337 41 122 133 149 144 134 142 141 146 151 156 163 166 175 175 175 173 166 159 157 155 153 152 148 145 140 130
342 344 349 352 354 354 356 358 4 14 22 28 35 45 71 79 88 89 105 116 119 119 121 121 126 131 137 148 145 142 144 138 138 139 138 137 136 134 133 129 124 115 109
Height
5839 5839 5839 5838 5837 5836 5836 5836 5837 5837 5837 5836 5836 5837 5838 5838 5839 5839 5839 5839 5839 5839 5840 5840 5840 5840 5841 5841 5841 5841 5841 5842 5842 5843 5843 5844 5844 5846 5847 5848 5849 5850 5851
5836 5836 5836 5835 5834 5833 5832 5832 5833 5833 5832 5831 5831 5831 5831 5832 5832 5832 5832 5832 5832 5832 5833 5833 5833 5834 5834 5834 5834 5834 5834 5835 5835 5836 5836 5837 5838 5839 5840 5841 5842 5843 5844
5833 5833 5832 5831 5831 5830 5829 5829 5828 5827 5827 5826 5825 5825 5825 5824 5825 5825 5825 5825 5825 5825 5825 5825 5826 5826 5827 5827 5827 5827 5828 5828 5828 5829 5830 5831 5832 5832 5833 5834 5836 5837 5838
5830 5829 5829 5828 5827 5826 5825 5824 5823 5822 5821 5820 5820 5819 5818 5818 5817 5817 5817 5817 5817 5817 5817 5817 5818 5818 5819 5819 5819 5820 5820 5821 5821 5822 5823 5824 5825 5826 5827 5828 5829 5830 5831
5826 5826 5825 5824 5823 5822 5821 5820 5818 5817 5816 5815 5814 5813 5812 5811 5810 5809 5809 5809 5809 5809 5810 5810 5810 5810 5811 5811 5811 5812 5812 5813 5814 5815 5815 5816 5818 5819 5821 5822 5822 5823 5824
5823 5822 5821 5820 5819 5818 5816 5815 5813 5812 5810 5809 5808 5806 5805 5804 5803 5802 5802 5802 5802 5802 5802 5802 5802 5803 5803 5803 5803 5803 5804 5805 5806 5807 5808 5809 5810 5812 5813 5814 5815 5816 5817
5819 5818 5817 5816 5815 5813 5811 5810 5808 5806 5805 5803 5802 5801 5799 5798 5797 5795 5795 5795 5795 5794 5794 5794 5794 5795 5795 5795 5795 5795 5796 5797 5798 5799 5800 5801 5803 5804 5805 5806 5807 5808 5809
5814 5814 5813 5812 5810 5808 5807 5805 5803 5801 5799 5798 5796 5795 5793 5792 5790 5789 5788 5788 5787 5787 5787 5787 5787 5787 5787 5787 5787 5787 5788 5789 5790 5791 5793 5794 5795 5796 5798 5799 5800 5800 5802
5810 5809 5808 5807 5805 5803 5801 5799 5797 5796 5794 5792 5790 5788 5787 5786 5784 5783 5782 5781 5781 5780 5780 5780 5780 5780 5780 5780 5780 5780 5780 5781 5782 5784 5785 5786 5787 5788 5790 5791 5792 5794 5794
5806 5805 5803 5801 5799 5798 5796 5793 5791 5789 5788 5786 5784 5782 5781 5780 5778 5777 5776 5775 5775 5774 5774 5773 5773 5773 5772 5772 5772 5773 5773 5774 5775 5776 5778 5779 5780 5781 5782 5783 5784 5786 5787
5802 5800 5798 5796 5794 5792 5789 5787 5785 5783 5781 5779 5777 5776 5774 5773 5772 5771 5770 5769 5768 5768 5767 5767 5766 5765 5765 5766 5766 5766 5767 5768 5768 5769 5770 5771 5772 5773 5774 5775 5776 5778 5779
5797 5795 5792 5790 5788 5785 5783 5781 5778 5776 5774 5773 5771 5769 5768 5767 5765 5764 5763 5762 5762 5761 5760 5760 5759 5759 5759 5759 5759 5760 5760 5761 5761 5762 5763 5763 5764 5765 5766 5767 5769 5770 5772
5791 5789 5786 5783 5781 5779 5776 5774 5772 5770 5768 5766 5764 5762 5761 5760 5758 5757 5756 5755 5755 5754 5754 5753 5753 5752 5752 5752 5752 5753 5753 5753 5754 5755 5755 5756 5757 5758 5759 5760 5762 5763 5764
5784 5782 5779 5776 5774 5771 5769 5767 5765 5763 5761 5759 5757 5755 5754 5752 5751 5750 5749 5748 5748 5747 5747 5746 5746 5745 5745 5745 5745 5746 5746 5746 5747 5748 5748 5749 5750 5751 5752 5753 5755 5756 5757
5777 5774 5772 5769 5767 5764 5762 5759 5757 5755 5753 5751 5749 5748 5746 5745 5744 5743 5742 5741 5740 5740 5739 5739 5739 5738 5738 5738 5739 5739 5739 5740 5740 5741 5741 5742 5743 5744 5746 5747 5749 5750 5751
5770 5767 5764 5762 5759 5756 5754 5752 5750 5748 5745 5743 5742 5740 5739 5738 5736 5735 5734 5733 5733 5732 5732 5731 5731 5731 5731 5731 5731 5732 5733 5733 5734 5734 5735 5736 5737 5738 5740 5741 5743 5744 5746
5762 5759 5756 5754 5751 5748 5746 5744 5742 5740 5738 5736 5734 5733 5732 5730 5729 5728 5727 5726 5725 5725 5725 5724 5724 5724 5724 5725 5725 5726 5727 5727 5728 5729 5730 5730 5731 5733 5734 5736 5737 5739 5741
5755 5752 5750 5747 5744 5741 5739 5737 5735 5733 5731 5729 5727 5726 5725 5723 5722 5721 5720 5719 5719 5718 5718 5718 5718 5718 5718 5719 5720 5720 5721 5723 5723 5724 5725 5726 5727 5728 5730 5731 5733 5735 5736
5749 5746 5743 5741 5738 5735 5732 5730 5728 5726 5724 5723 5721 5720 5718 5717 5715 5715 5714 5713 5713 5713 5712 5712 5712 5713 5713 5714 5715 5716 5717 5718 5719 5720 5721 5722 5723 5724 5726 5728 5729 5731 5732
5743 5740 5737 5734 5732 5729 5726 5724 5721 5720 5718 5717 5715 5714 5712 5711 5710 5709 5709 5708 5708 5708 5708 5708 5708 5708 5709 5709 5710 5711 5713 5714 5715 5717 5718 5719 5720 5721 5723 5724 5726 5727 5728
5737 5734 5732 5729 5726 5723 5721 5718 5716 5714 5713 5711 5710 5709 5707 5706 5705 5705 5704 5704 5704 5704 5704 5704 5704 5704 5705 5706 5707 5708 5710 5712 5713 5715 5716 5717 5718 5719 5720 5722 5723 5724 5725
5732 5729 5726 5724 5721 5718 5716 5713 5711 5710 5708 5707 5705 5704 5704 5703 5702 5701 5701 5701 5701 5701 5701 5701 5702 5702 5703 5704 5705 5707 5708 5710 5711 5713 5714 5715 5716 5717 5718 5719 5720 5721 5722
5728 5725 5722 5719 5717 5714 5712 5710 5708 5706 5704 5703 5702 5701 5701 5700 5699 5699 5699 5699 5699 5699 5699 5700 5700 5701 5702 5703 5705 5706 5708 5709 5711 5712 5713 5714 5715 5716 5717 5718 5719 5719 5720
5723 5721 5718 5716 5713 5711 5709 5707 5705 5704 5702 5701 5700 5699 5699 5698 5698 5698 5698 5698 5698 5698 5698 5699 5699 5700 5701 5703 5704 5706 5707 5709 5710 5711 5712 5713 5714 5715 5716 5717 5718 5719 5719
5720 5717 5715 5713 5711 5709 5707 5705 5704 5702 5701 5700 5699 5699 5698 5698 5698 5697 5697 5698 5698 5698 5698 5699 5699 5700 5702 5703 5705 5706 5707 5708 5709 5711 5712 5713 5714 5715 5716 5717 5718 5719 5719
5718 5715 5713 5711 5709 5708 5706 5704 5703 5702 5701 5700 5699 5699 5699 5698 5698 5698 5698 5698 5698 5699 5699 5700 5700 5701 5703 5704 5705 5706 5707 5709 5710 5711 5712 5713 5714 5715 5716 5717 5718 5719 5720